When you browse on this site, cookies collect data to enhance your experience and personalize the content and advertising you see.
Visit our Privacy Policy to learn more. By continuing to use the site, you agree to this use of cookies and data.
  • en Suisse
  • Liste des pays
  • À 7 jours
  • Température de l'eau
  • Carte satellitaire
  • Carte météo
  • Widgets météo
  • user-avatar
    Se connecter

    Météo par heure à Tomakhivka

    Ce jour, 21 Avril, Dimanche

    Heure Température Précipitation Vent Pression Humidité
    00:00 +7°C° 0 mm 1 m/s 756 mmHg 48%
    01:00 +7°C° 0 mm 1 m/s 756 mmHg 50%
    02:00 +7°C° 0 mm 1 m/s 756 mmHg 51%
    03:00 +6°C° 0 mm 1 m/s 756 mmHg 53%
    04:00 +6°C° 0 mm 1 m/s 756 mmHg 55%
    05:00 +6°C° 0 mm 1 m/s 757 mmHg 56%
    06:00 +8°C° 0 mm 1 m/s 757 mmHg 52%
    07:00 +8°C° 0 mm 2 m/s 757 mmHg 48%
    08:00 +10°C° 0 mm 2 m/s 757 mmHg 44%
    09:00 +12°C° 0 mm 2 m/s 757 mmHg 39%
    10:00 +13°C° 0 mm 2 m/s 757 mmHg 35%
    11:00 +13°C° 0 mm 3 m/s 757 mmHg 31%
    12:00 +13°C° 0 mm 3 m/s 757 mmHg 31%
    13:00 +13°C° 0 mm 3 m/s 757 mmHg 31%
    14:00 +15°C° 0 mm 2 m/s 757 mmHg 31%
    15:00 +14°C° 0 mm 2 m/s 757 mmHg 33%
    16:00 +14°C° 0 mm 2 m/s 757 mmHg 35%
    17:00 +14°C° 0 mm 2 m/s 757 mmHg 37%
    18:00 +13°C° 0 mm 2 m/s 757 mmHg 41%
    19:00 +10°C° 0 mm 2 m/s 757 mmHg 45%
    20:00 +9°C° 0 mm 2 m/s 757 mmHg 48%
    21:00 +9°C° 0 mm 2 m/s 757 mmHg 49%
    22:00 +9°C° 0 mm 1 m/s 758 mmHg 50%
    23:00 +9°C° 0 mm 1 m/s 758 mmHg 50%

    Demain, 22 Avril, Lundi

    Heure Température Précipitation Vent Pression Humidité
    00:00 +8°C° 0 mm 2 m/s 758 mmHg 50%
    01:00 +8°C° 0 mm 2 m/s 758 mmHg 50%
    02:00 +8°C° 0 mm 2 m/s 758 mmHg 50%
    03:00 +7°C° 0 mm 2 m/s 758 mmHg 53%
    04:00 +7°C° 0 mm 2 m/s 758 mmHg 55%
    05:00 +6°C° 0 mm 2 m/s 758 mmHg 57%
    06:00 +8°C° 0 mm 3 m/s 758 mmHg 53%
    07:00 +10°C° 0 mm 3 m/s 758 mmHg 49%
    08:00 +12°C° 0 mm 4 m/s 759 mmHg 45%
    09:00 +13°C° 0 mm 4 m/s 759 mmHg 42%
    10:00 +14°C° 0 mm 4 m/s 759 mmHg 39%
    11:00 +14°C° 0 mm 3 m/s 759 mmHg 36%
    12:00 +16°C° 0 mm 3 m/s 758 mmHg 37%
    13:00 +16°C° 0 mm 3 m/s 758 mmHg 38%
    14:00 +16°C° 0 mm 3 m/s 758 mmHg 39%
    15:00 +16°C° 0 mm 3 m/s 758 mmHg 42%
    16:00 +14°C° 0 mm 3 m/s 758 mmHg 45%
    17:00 +15°C° 0 mm 2 m/s 758 mmHg 49%
    18:00 +14°C° 0 mm 2 m/s 758 mmHg 52%
    19:00 +13°C° 0 mm 2 m/s 758 mmHg 56%
    20:00 +10°C° 0 mm 2 m/s 759 mmHg 59%
    21:00 +10°C° 0 mm 2 m/s 759 mmHg 60%
    22:00 +9°C° 0 mm 2 m/s 759 mmHg 61%
    23:00 +9°C° 0 mm 2 m/s 759 mmHg 63%

    Après-demain, 23 Avril, Mardi

    Heure Température Précipitation Vent Pression Humidité
    00:00 +10°C° 0 mm 1 m/s 759 mmHg 63%
    01:00 +10°C° 0 mm 1 m/s 759 mmHg 62%
    02:00 +10°C° 0 mm 1 m/s 760 mmHg 62%
    03:00 +10°C° 0 mm 1 m/s 760 mmHg 63%
    04:00 +10°C° 0 mm 1 m/s 760 mmHg 63%
    05:00 +10°C° 0 mm 1 m/s 760 mmHg 64%
    06:00 +11°C° 0 mm 1 m/s 760 mmHg 60%
    07:00 +12°C° 0 mm 1 m/s 760 mmHg 56%
    08:00 +13°C° 0 mm 1 m/s 761 mmHg 53%
    09:00 +14°C° 0 mm 2 m/s 761 mmHg 49%
    10:00 +15°C° 0 mm 2 m/s 761 mmHg 46%
    11:00 +16°C° 0 mm 2 m/s 761 mmHg 43%
    12:00 +16°C° 0 mm 2 m/s 761 mmHg 42%
    13:00 +16°C° 0 mm 2 m/s 760 mmHg 41%
    14:00 +16°C° 0 mm 2 m/s 760 mmHg 39%
    15:00 +16°C° 0 mm 1 m/s 760 mmHg 42%
    16:00 +16°C° 0 mm 1 m/s 760 mmHg 44%
    17:00 +16°C° 0 mm 1 m/s 760 mmHg 47%
    18:00 +15°C° 0 mm 1 m/s 760 mmHg 49%
    19:00 +14°C° 0 mm 1 m/s 760 mmHg 51%
    20:00 +13°C° 0 mm 1 m/s 760 mmHg 53%
    21:00 +12°C° 0 mm 2 m/s 761 mmHg 55%
    22:00 +10°C° 0 mm 2 m/s 761 mmHg 57%
    23:00 +9°C° 0 mm 2 m/s 761 mmHg 59%

    24 Avril, Mercredi

    Heure Température Précipitation Vent Pression Humidité
    00:00 +9°C° 0 mm 2 m/s 761 mmHg 61%
    01:00 +9°C° 0 mm 2 m/s 761 mmHg 62%
    02:00 +9°C° 0 mm 2 m/s 761 mmHg 64%
    03:00 +8°C° 0 mm 2 m/s 761 mmHg 65%
    04:00 +8°C° 0 mm 2 m/s 761 mmHg 67%
    05:00 +8°C° 0 mm 2 m/s 761 mmHg 69%
    06:00 +10°C° 0 mm 3 m/s 761 mmHg 64%
    07:00 +12°C° 0 mm 3 m/s 761 mmHg 58%
    08:00 +14°C° 0 mm 3 m/s 761 mmHg 52%
    09:00 +15°C° 0 mm 4 m/s 761 mmHg 49%
    10:00 +18°C° 0 mm 4 m/s 760 mmHg 45%
    11:00 +19°C° 0 mm 4 m/s 760 mmHg 41%
    12:00 +19°C° 0 mm 4 m/s 760 mmHg 42%
    13:00 +19°C° 0 mm 4 m/s 760 mmHg 43%
    14:00 +19°C° 0 mm 4 m/s 759 mmHg 44%
    15:00 +19°C° 0 mm 3 m/s 759 mmHg 47%
    16:00 +19°C° 0 mm 3 m/s 759 mmHg 49%
    17:00 +19°C° 0 mm 3 m/s 759 mmHg 52%
    18:00 +18°C° 0 mm 3 m/s 759 mmHg 55%
    19:00 +17°C° 0 mm 3 m/s 759 mmHg 58%
    20:00 +16°C° 0 mm 3 m/s 759 mmHg 61%
    21:00 +14°C° 0 mm 3 m/s 759 mmHg 63%
    22:00 +13°C° 0 mm 3 m/s 759 mmHg 66%
    23:00 +13°C° 0 mm 3 m/s 759 mmHg 69%

    25 Avril, Jeudi

    Heure Température Précipitation Vent Pression Humidité
    00:00 +12°C° 0 mm 3 m/s 759 mmHg 70%
    01:00 +12°C° 0 mm 3 m/s 759 mmHg 72%
    02:00 +11°C° 0 mm 3 m/s 759 mmHg 74%
    03:00 +12°C° 0 mm 2 m/s 759 mmHg 75%
    04:00 +12°C° 0 mm 2 m/s 760 mmHg 76%
    05:00 +10°C° 0 mm 2 m/s 760 mmHg 77%
    06:00 +13°C° 0 mm 2 m/s 760 mmHg 70%
    07:00 +15°C° 0 mm 2 m/s 760 mmHg 64%
    08:00 +17°C° 0 mm 2 m/s 760 mmHg 57%
    09:00 +19°C° 0 mm 2 m/s 760 mmHg 52%
    10:00 +20°C° 0 mm 2 m/s 759 mmHg 47%
    11:00 +21°C° 0 mm 2 m/s 759 mmHg 42%
    12:00 +23°C° 0 mm 2 m/s 759 mmHg 40%
    13:00 +23°C° 0 mm 2 m/s 759 mmHg 39%
    14:00 +24°C° 0 mm 2 m/s 758 mmHg 37%
    15:00 +23°C° 0 mm 1 m/s 758 mmHg 38%
    16:00 +23°C° 0 mm 1 m/s 758 mmHg 39%
    17:00 +23°C° 0 mm 1 m/s 758 mmHg 41%
    18:00 +20°C° 0 mm 0 m/s 758 mmHg 44%
    19:00 +18°C° 0 mm 0 m/s 758 mmHg 48%
    20:00 +16°C° 0 mm 0 m/s 758 mmHg 51%
    21:00 +16°C° 0 mm 0 m/s 757 mmHg 53%
    22:00 +15°C° 0 mm 0 m/s 757 mmHg 55%
    23:00 +16°C° 0 mm 1 m/s 757 mmHg 57%

    26 Avril, Vendredi

    Heure Température Précipitation Vent Pression Humidité
    00:00 +15°C° 0 mm 1 m/s 757 mmHg 60%
    01:00 +15°C° 0 mm 1 m/s 757 mmHg 64%
    02:00 +14°C° 0 mm 2 m/s 757 mmHg 67%
    03:00 +14°C° 0 mm 1 m/s 757 mmHg 69%
    04:00 +13°C° 0 mm 1 m/s 757 mmHg 71%
    05:00 +13°C° 0 mm 1 m/s 757 mmHg 73%
    06:00 +15°C° 0 mm 1 m/s 757 mmHg 66%
    07:00 +18°C° 0 mm 1 m/s 757 mmHg 60%
    08:00 +20°C° 0 mm 1 m/s 757 mmHg 53%
    09:00 +21°C° 0 mm 1 m/s 756 mmHg 49%
    10:00 +21°C° 0 mm 2 m/s 756 mmHg 44%
    11:00 +23°C° 0 mm 2 m/s 756 mmHg 39%
    12:00 +22°C° 0 mm 3 m/s 755 mmHg 41%
    13:00 +22°C° 0 mm 3 m/s 755 mmHg 43%
    14:00 +21°C° 0 mm 3 m/s 755 mmHg 45%
    15:00 +21°C° 0 mm 3 m/s 754 mmHg 46%
    16:00 +21°C° 0 mm 3 m/s 754 mmHg 47%
    17:00 +21°C° 0 mm 3 m/s 754 mmHg 49%
    18:00 +20°C° 0 mm 3 m/s 754 mmHg 51%
    19:00 +19°C° 0 mm 2 m/s 754 mmHg 53%
    20:00 +17°C° 0 mm 2 m/s 754 mmHg 55%
    21:00 +17°C° 0 mm 3 m/s 753 mmHg 58%
    22:00 +16°C° 0 mm 3 m/s 753 mmHg 61%
    23:00 +14°C° 0 mm 3 m/s 753 mmHg 64%
    Voir plus